{"data":{"norad_id":60922,"epoch":"2026-05-25T02:34:08.660352Z","epoch_age_seconds":79898,"freshness":"FRESH","line1":"1 60922U 24154V   26145.10704468  .00000445  00000+0  27158-4 0  9992","line2":"2 60922  53.1616 288.9716 0000921  97.8242 262.2864 15.30188116 98043","mean_motion":15.30188116,"eccentricity":9.21e-5,"inclination_deg":53.1616,"raan_deg":288.9716,"arg_perigee_deg":97.8242,"mean_anomaly_deg":262.2864,"bstar":2.7158e-5,"rev_number":9804,"period_min":94.106076562942,"perigee_km":474.61935613722,"apogee_km":475.88175012451,"semimajor_km":6853.3875531309,"source":"CELESTRAK","updated_at":"2026-05-25T13:38:19.316342Z"}}